Location: Dappach
(48.9767°N, 9.6998°E)
Time: 20:57:32
(UTC+00:00)

COSMOS 2428 - Pass Details

Date: 14 August 2024
Orbit: 842 x 857 km, 70.9° (Epoch: 09 September)

Event Time Altitude Azimuth Distance (km) Brightness Sun altitude
Exits shadow 23:29:02 23° 98° (E) 1,733 4.2 -27.1°
Drops below altitude 10° 23:33:09 10° 52° (NE) 2,487 5.6 -27.0°
Sets 23:36:04 0° 38° (NE) 3,430 6.7 -27.0°
